M I D A S
Marine Information and Data Acquisition System
Tripno 1738 of the Zeeleeuw from 2009-07-24 06:57:02 to 2009-07-24 14:23:39
Back to CruiseResearch ActivitiesStationsMapUnderway DataData graphs

EquipmentUnitsComment
TimeDGPSUTC
LatitudeDGPSDM.mWGS84
LongitudeDGPSDM.mWGS84
TemperatureSBE03/SBE38deg celciusITS90
ConductivitySBE21S/mITS90
SalinitySBE21 Practical Salinity Units
ChlorophylAChelsea fluorimeterg/lCalibrated in Aceton
Missing or incorrect values are displayed as -999
Sea surface data collected by the RV Zeeleeuw from 2009-07-24 06:43:54 to 2009-07-24 14:21:55
Time Latitude Longitude Temperature Conductivity Salinity ChlorophylA
2009-07-24 06:45:03 51°13.681 2°55.881 22.2265 2.327022 15.483384 12.406692
2009-07-24 06:46:03 51°13.695 2°55.797 22.2284 2.326712 15.482235 12.406692
2009-07-24 06:47:01 51°13.699 2°55.74 22.2571 2.326505 15.482668 12.406692
2009-07-24 06:48:00 51°13.714 2°55.738 22.2894 2.326299 15.483378 12.406692
2009-07-24 06:48:59 51°13.774 2°55.695 22.2068 2.326196 15.482626 12.406692
2009-07-24 06:49:59 51°13.889 2°55.591 22.2047 2.325782 15.481001 12.406692
2009-07-24 06:50:59 51°14.024 2°55.49 22.2261 2.325679 15.482187 12.406692
2009-07-24 06:51:59 51°14.158 2°55.383 22.2491 2.325472 15.481789 12.406692
2009-07-24 06:52:59 51°14.277 2°55.233 22.234 2.325782 15.485986 12.406692
2009-07-24 06:53:59 51°14.383 2°55.036 22.2337 2.325162 15.481194 12.371868
2009-07-24 06:54:59 51°14.518 2°54.865 22.1982 2.324956 15.48135 12.371868
2009-07-24 06:55:59 51°14.681 2°54.719 22.1996 2.325266 15.485548 12.371868
2009-07-24 06:56:59 51°14.846 2°54.565 22.1957 2.324749 15.483169 12.371868
2009-07-24 06:57:59 51°15.014 2°54.418 22.1607 2.324852 15.485585 12.371868
2009-07-24 06:58:59 51°15.181 2°54.268 22.1795 2.324646 15.485465 12.371868
2009-07-24 06:59:59 51°15.348 2°54.115 22.1876 2.324646 15.489624 12.371868
2009-07-24 07:00:59 51°15.513 2°53.955 22.1707 2.324336 15.489862 12.371868
2009-07-24 07:01:59 51°15.679 2°53.792 22.1653 2.323922 15.486294 12.371868
2009-07-24 07:02:59 51°15.845 2°53.624 22.1556 2.323716 15.494223 12.337044
2009-07-24 07:03:59 51°16.01 2°53.455 22.1701 2.323406 15.496129 12.337044
2009-07-24 07:04:59 51°16.177 2°53.288 22.1444 2.322993 15.495614 12.337044
2009-07-24 07:05:59 51°16.343 2°53.12 22.1664 2.322786 15.505229 12.337044
2009-07-24 07:06:59 51°16.511 2°52.957 22.1774 2.322373 15.512792 12.337044
2009-07-24 07:07:59 51°16.677 2°52.793 22.162 2.322063 15.509134 12.337044
2009-07-24 07:08:59 51°16.845 2°52.64 22.1628 2.321753 15.519973 12.30222
2009-07-24 07:09:59 51°17.015 2°52.499 22.1738 2.321029 15.502978 12.30222
2009-07-24 07:10:59 51°17.184 2°52.353 22.183 2.320513 15.530178 12.30222
2009-07-24 07:11:59 51°17.361 2°52.244 22.1636 2.31979 15.54336 12.337044
2009-07-24 07:12:59 51°17.547 2°52.22 22.189 2.319481 15.548379 12.337044
2009-07-24 07:13:59 51°17.733 2°52.214 22.1747 2.318344 15.542008 12.337044
2009-07-24 07:14:59 51°17.919 2°52.19 22.1946 2.318137 15.54414 12.30222
2009-07-24 07:15:59 51°18.104 2°52.143 22.2085 2.317104 15.534879 12.267396
2009-07-24 07:16:59 51°18.291 2°52.105 22.2055 2.31669 15.532128 12.267396
2009-07-24 07:17:59 51°18.478 2°52.063 22.2274 2.31576 15.534002 12.232572
2009-07-24 07:18:59 51°18.666 2°52.018 22.2236 2.315451 15.545489 12.232572
2009-07-24 07:19:59 51°18.853 2°51.975 22.2296 2.314521 15.541752 12.232572
2009-07-24 07:20:59 51°19.04 2°51.94 22.2523 2.31328 15.519733 12.197748
2009-07-24 07:21:59 51°19.227 2°51.908 22.2483 2.312764 15.533065 12.197748
2009-07-24 07:22:59 51°19.414 2°51.871 22.247 2.312351 15.540997 12.197748
2009-07-24 07:23:59 51°19.601 2°51.834 22.2727 2.311937 15.537959 12.197748
2009-07-24 07:24:59 51°19.788 2°51.797 22.2844 2.311111 15.533289 12.162924
2009-07-24 07:25:59 51°19.975 2°51.762 22.282 2.309974 15.52409 12.162924
2009-07-24 07:26:59 51°20.161 2°51.721 22.3009 2.310077 15.524007 14.426488
2009-07-24 07:27:59 51°20.349 2°51.677 22.2968 2.309147 15.525607 15.088145
2009-07-24 07:28:59 51°20.537 2°51.639 22.3214 2.308424 15.526478 16.16769
2009-07-24 07:29:59 51°20.726 2°51.6 22.3107 2.307597 15.519835 17.177588
2009-07-24 07:30:59 51°20.915 2°51.567 22.326 2.307391 15.526197 17.943717
2009-07-24 07:31:59 51°21.103 2°51.534 22.3399 2.306874 15.532821 18.640198
2009-07-24 07:32:59 51°21.291 2°51.501 22.3507 2.305841 15.522112 19.058087
2009-07-24 07:33:59 51°21.479 2°51.465 22.3624 2.305944 15.526255 19.441151
2009-07-24 07:34:59 51°21.666 2°51.429 22.369 2.305841 15.529441 19.68492
2009-07-24 07:35:59 51°21.852 2°51.396 22.3863 2.305324 15.521971 24.769232
2009-07-24 07:36:59 51°22.039 2°51.366 22.3994 2.304188 15.534477 24.699583
2009-07-24 07:37:59 51°22.225 2°51.338 22.4064 2.303878 15.521465 25.709481
2009-07-24 07:38:59 51°22.412 2°51.308 22.4234 2.302741 15.518731 26.928323
2009-07-24 07:39:59 51°22.598 2°51.278 22.4229 2.302638 15.513739 27.729276
2009-07-24 07:40:59 51°22.783 2°51.247 22.4428 2.302534 15.509314 28.599877
2009-07-24 07:41:59 51°22.968 2°51.219 22.446 2.301604 15.515431 29.331183
2009-07-24 07:42:59 51°23.153 2°51.195 22.4689 2.300778 15.507645 30.271432
2009-07-24 07:43:59 51°23.337 2°51.173 22.4523 2.301088 15.514162 30.34108
2009-07-24 07:44:59 51°23.52 2°51.147 22.4669 2.300055 15.514446 30.724145
2009-07-24 07:45:59 51°23.705 2°51.117 22.4826 2.299434 15.505357 31.211682
2009-07-24 07:46:59 51°23.891 2°51.09 22.4834 2.300055 15.518966 31.002737
2009-07-24 07:47:59 51°24.078 2°51.06 22.5068 2.298505 15.510919 31.246506
2009-07-24 07:48:59 51°24.261 2°51.034 22.5198 2.297368 15.49322 31.142033
2009-07-24 07:49:59 51°24.445 2°51.008 22.533 2.297058 15.496856 31.037561
2009-07-24 07:50:59 51°24.628 2°50.979 22.5362 2.297058 15.510979 31.107209
2009-07-24 07:51:59 51°24.811 2°50.951 22.5565 2.295922 15.51305 31.176857
2009-07-24 07:52:59 51°24.992 2°50.921 22.5647 2.295405 15.502162 30.863441
2009-07-24 07:53:59 51°25.171 2°50.888 22.5751 2.295405 15.496512 30.933089
2009-07-24 07:54:59 51°25.353 2°50.854 22.5695 2.295301 15.500834 30.654497
2009-07-24 07:55:59 51°25.534 2°50.822 22.5838 2.294061 15.497329 30.619673
2009-07-24 07:56:59 51°25.714 2°50.79 22.6131 2.293441 15.494727 31.037561
2009-07-24 07:57:59 51°25.895 2°50.756 22.6022 2.293648 15.499647 30.863441
2009-07-24 07:58:59 51°26.077 2°50.721 22.6234 2.292201 15.490654 31.002737
2009-07-24 07:59:59 51°26.259 2°50.692 22.6373 2.292408 15.496141 30.863441
2009-07-24 08:00:59 51°26.441 2°50.664 22.6319 2.292511 15.492096 30.689321
2009-07-24 08:01:59 51°26.625 2°50.633 22.6385 2.292512 15.49549 30.550024
2009-07-24 08:02:59 51°26.806 2°50.608 22.662 2.291788 15.487599 30.445552
2009-07-24 08:03:59 51°26.986 2°50.584 22.6721 2.291065 15.481972 30.584849
2009-07-24 08:04:59 51°27.165 2°50.558 22.6941 2.290032 15.488189 30.410728
2009-07-24 08:05:59 51°27.347 2°50.538 22.6988 2.290239 15.497929 30.34108
2009-07-24 08:06:59 51°27.528 2°50.513 22.7039 2.289722 15.497223 30.236608
2009-07-24 08:07:59 51°27.708 2°50.484 22.716 2.289102 15.495752 30.236608
2009-07-24 08:08:59 51°27.89 2°50.456 22.7307 2.288689 15.498079 30.132136
2009-07-24 08:09:59 51°28.07 2°50.429 22.7271 2.288895 15.499609 29.888367
2009-07-24 08:10:59 51°28.25 2°50.399 22.7253 2.284452 15.462751 29.679423
2009-07-24 08:11:59 51°28.43 2°50.368 22.7643 2.287759 15.484393 29.923192
2009-07-24 08:12:59 51°28.61 2°50.34 22.7526 2.279492 15.445547 29.574951
2009-07-24 08:13:59 51°28.788 2°50.31 22.7619 2.287449 15.489465 29.574951
2009-07-24 08:14:59 51°28.964 2°50.277 22.7695 2.287862 15.486857 29.505303
2009-07-24 08:15:59 51°29.14 2°50.245 22.782 2.287345 15.488416 29.435655
2009-07-24 08:16:59 51°29.318 2°50.219 22.808 2.286725 15.483542 29.574951
2009-07-24 08:17:59 51°29.49 2°50.241 22.7835 2.285899 15.499265 29.749071
2009-07-24 08:18:59 51°29.582 2°50.459 22.8351 2.285693 15.504554 29.749071
2009-07-24 08:19:59 51°29.646 2°50.713 22.8212 2.285072 15.496261 29.574951
2009-07-24 08:20:59 51°29.71 2°50.969 22.8099 2.285796 15.500204 29.366007
2009-07-24 08:21:59 51°29.772 2°51.225 22.877 2.284453 15.497916 29.783895
2009-07-24 08:22:59 51°29.834 2°51.481 22.8518 2.284452 15.489392 29.749071
2009-07-24 08:23:59 51°29.897 2°51.737 22.8712 2.284762 15.494815 29.714247
2009-07-24 08:24:59 51°29.961 2°51.99 22.86 2.284039 15.484341 29.540127
2009-07-24 08:25:59 51°30.025 2°52.242 22.8939 2.285693 15.508821 29.679423
2009-07-24 08:26:59 51°30.082 2°52.481 22.8736 2.285279 15.51344 29.540127
2009-07-24 08:27:59 51°30.144 2°52.732 22.9015 2.284246 15.48928 29.644599
2009-07-24 08:28:59 51°30.206 2°52.985 22.9357 2.283936 15.498348 29.714247
2009-07-24 08:29:59 51°30.269 2°53.243 22.919 2.283729 15.503928 29.749071
2009-07-24 08:30:59 51°30.332 2°53.496 22.9356 2.283523 15.494997 29.923192
2009-07-24 08:31:59 51°30.393 2°53.748 22.9624 2.283833 15.493601 29.958016
2009-07-24 08:32:59 51°30.457 2°54.002 22.9677 2.283006 15.493439 30.097312
2009-07-24 08:33:59 51°30.519 2°54.256 22.9775 2.284453 15.51528 30.132136
2009-07-24 08:34:59 51°30.582 2°54.507 22.9717 2.282903 15.490397 30.027664
2009-07-24 08:35:59 51°30.642 2°54.757 22.9712 2.282903 15.490682 29.958016
2009-07-24 08:36:59 51°30.702 2°55.007 23.011 2.283213 15.491844 30.201784
2009-07-24 08:37:59 51°30.761 2°55.259 23.0445 2.282696 15.494551 30.375904
2009-07-24 08:38:59 51°30.819 2°55.515 23.0301 2.281869 15.493536 30.410728
2009-07-24 08:39:59 51°30.877 2°55.767 23.0041 2.281559 15.49465 30.375904
2009-07-24 08:40:59 51°30.93 2°56.015 23.0461 2.281766 15.493338 29.99284
2009-07-24 08:41:59 51°30.982 2°56.262 23.0602 2.281559 15.485547 29.609775
2009-07-24 08:42:59 51°31.041 2°56.506 23.0822 2.281869 15.48472 29.435655
2009-07-24 08:43:59 51°31.113 2°56.739 23.0768 2.281663 15.484608 29.714247
2009-07-24 08:44:59 51°31.203 2°56.956 23.0377 2.282283 15.497174 29.470479
2009-07-24 08:45:59 51°31.3 2°57.155 23.1209 2.282076 15.493648 30.132136
2009-07-24 08:46:59 51°31.404 2°57.352 23.1149 2.284556 15.515192 30.619673
2009-07-24 08:47:59 51°31.506 2°57.548 23.1018 2.280629 15.480066 30.584849
2009-07-24 08:48:59 51°31.604 2°57.755 23.167 2.28528 15.528551 31.037561
2009-07-24 08:49:59 51°31.704 2°57.956 23.1663 2.282386 15.508196 30.758969
2009-07-24 08:50:59 51°31.803 2°58.163 23.1422 2.280733 15.496483 30.863441
2009-07-24 08:51:59 51°31.909 2°58.358 23.1474 2.280113 15.490454 30.828617
2009-07-24 08:52:59 51°32.027 2°58.536 23.1451 2.280423 15.495605 30.584849
2009-07-24 08:53:59 51°32.154 2°58.696 23.1301 2.28156 15.506901 34.311022
2009-07-24 08:54:59 51°32.286 2°58.846 23.1804 2.27939 15.484227 34.171726
2009-07-24 08:55:59 51°32.421 2°58.986 23.1357 2.276083 15.460523 33.684189
2009-07-24 08:56:59 51°32.561 2°59.118 23.1907 2.279493 15.481865 34.276198
2009-07-24 08:57:59 51°32.715 2°59.199 23.2266 2.278563 15.474959 34.415494
2009-07-24 08:58:59 51°32.867 2°59.079 23.2345 2.278563 15.481218 34.38067
2009-07-24 08:59:59 51°32.981 2°58.871 23.2289 2.278356 15.476268 34.519967
2009-07-24 09:00:59 51°33.091 2°58.656 23.2195 2.27815 15.476156 34.589615
2009-07-24 09:01:59 51°33.201 2°58.428 23.2225 2.277943 15.478889 35.042327
2009-07-24 09:02:59 51°33.307 2°58.193 23.2488 2.278046 15.478802 35.007503
2009-07-24 09:03:59 51°33.41 2°57.95 23.2444 2.27784 15.477836 35.007503
2009-07-24 09:04:59 51°33.512 2°57.708 23.2497 2.27815 15.477009 35.007503
2009-07-24 09:05:59 51°33.614 2°57.462 23.2619 2.27784 15.474991 34.903031
2009-07-24 09:06:59 51°33.717 2°57.219 23.2713 2.27753 15.473257 34.903031
2009-07-24 09:07:59 51°33.819 2°56.974 23.2721 2.27784 15.478121 34.763735
2009-07-24 09:08:59 51°33.921 2°56.727 23.297 2.277116 15.471325 34.728911
2009-07-24 09:09:59 51°34.02 2°56.476 23.2854 2.27567 15.465697 34.694087
2009-07-24 09:10:59 51°34.121 2°56.227 23.2911 2.277013 15.477672 34.624439
2009-07-24 09:11:59 51°34.221 2°55.978 23.3066 2.2766 15.473746 35.042327
2009-07-24 09:12:59 51°34.232 2°55.683 23.3218 2.276186 15.47466 34.20655
2009-07-24 09:13:59 51°34.117 2°55.416 23.3189 2.27722 15.467827 33.962782
2009-07-24 09:14:59 51°33.99 2°55.139 23.3254 2.276703 15.480494 34.03243
2009-07-24 09:15:59 51°33.872 2°54.859 23.3391 2.276187 15.483777 34.241374
2009-07-24 09:16:59 51°33.751 2°54.577 23.3404 2.276187 15.478077 34.415494
2009-07-24 09:17:59 51°33.636 2°54.298 23.3625 2.275463 15.473269 34.485143
2009-07-24 09:18:59 51°33.518 2°54.014 23.3703 2.27536 15.4688 34.519967
2009-07-24 09:19:59 51°33.399 2°53.732 23.3822 2.27536 15.469654 34.485143
2009-07-24 09:20:59 51°33.278 2°53.451 23.3813 2.275257 15.472872 34.485143
2009-07-24 09:21:59 51°33.159 2°53.168 23.386 2.274533 15.474331 34.415494
2009-07-24 09:22:59 51°33.038 2°52.882 23.3994 2.27412 15.471542 34.38067
2009-07-24 09:23:59 51°32.916 2°52.598 23.4136 2.274223 15.47174 34.276198
2009-07-24 09:24:59 51°32.795 2°52.317 23.4131 2.27412 15.472681 34.241374
2009-07-24 09:25:59 51°32.673 2°52.038 23.4269 2.274017 15.465646 34.136902
2009-07-24 09:26:59 51°32.553 2°51.758 23.4375 2.273707 15.471317 34.102078
2009-07-24 09:27:59 51°32.429 2°51.477 23.4316 2.273397 15.465022 33.997606
2009-07-24 09:28:59 51°32.303 2°51.198 23.4455 2.272983 15.466791 33.962782
2009-07-24 09:29:59 51°32.181 2°50.922 23.4617 2.273397 15.466162 33.927958
2009-07-24 09:30:59 51°32.061 2°50.643 23.474 2.27257 15.464001 33.927958
2009-07-24 09:31:59 51°31.938 2°50.363 23.4731 2.27288 15.470297 33.893134
2009-07-24 09:32:59 51°31.816 2°50.085 23.4801 2.27257 15.464001 33.85831
2009-07-24 09:33:59 51°31.694 2°49.806 23.4897 2.272053 15.459303 33.823486
2009-07-24 09:34:59 51°31.572 2°49.526 23.4996 2.272157 15.46292 33.893134
2009-07-24 09:35:59 51°31.451 2°49.245 23.5129 2.27195 15.461383 33.85831
2009-07-24 09:36:59 51°31.329 2°48.967 23.5259 2.27226 15.462264 33.85831
2009-07-24 09:37:59 51°31.208 2°48.686 23.5219 2.272053 15.455317 33.893134
2009-07-24 09:38:59 51°31.086 2°48.408 23.5278 2.272053 15.461582 33.893134
2009-07-24 09:39:59 51°30.973 2°48.119 23.5465 2.271433 15.460103 33.893134
2009-07-24 09:40:59 51°30.886 2°47.817 23.5544 2.272157 15.462635 33.893134
2009-07-24 09:41:59 51°30.897 2°47.513 23.5581 2.26978 15.445808 33.196653
2009-07-24 09:42:59 51°31.017 2°47.314 23.5892 2.27257 15.470842 28.390933
2009-07-24 09:43:59 51°31.175 2°47.207 23.5955 2.272673 15.467619 26.545258
2009-07-24 09:44:59 51°31.339 2°47.16 23.5874 2.273294 15.473944 26.789027
2009-07-24 09:45:59 51°31.503 2°47.141 23.6082 2.271847 15.459759 26.928323
2009-07-24 09:46:59 51°31.667 2°47.139 23.6014 2.27133 15.458479 27.276563
2009-07-24 09:47:59 51°31.831 2°47.136 23.6258 2.274637 15.485653 28.251637
2009-07-24 09:48:59 51°31.996 2°47.129 23.6255 2.274017 15.484464 27.555156
2009-07-24 09:49:59 51°32.16 2°47.122 23.6217 2.2704 15.453268 27.032795
2009-07-24 09:50:59 51°32.324 2°47.122 23.6176 2.272674 15.469615 25.221944
2009-07-24 09:51:59 51°32.487 2°47.118 23.67 2.27071 15.456145 24.873704
2009-07-24 09:52:59 51°32.651 2°47.122 23.6543 2.022566 13.618575 26.371138
2009-07-24 09:53:59 51°32.816 2°47.123 23.675 1.632213 10.785581 25.953249
2009-07-24 09:54:59 51°32.981 2°47.114 23.6951 2.09962 14.187871 25.848777
2009-07-24 09:55:59 51°33.147 2°47.108 23.7302 1.73625 11.541935 26.405962
2009-07-24 09:56:59 51°33.311 2°47.121 23.675 1.272069 8.234641 26.440786
2009-07-24 09:57:59 51°33.475 2°47.122 23.7085 1.370256 8.925789 26.64973
2009-07-24 09:58:59 51°33.642 2°47.128 23.7185 1.796535 11.973757 26.510434
2009-07-24 09:59:59 51°33.807 2°47.131 23.6951 1.144619 7.349644 26.684555
2009-07-24 10:00:59 51°33.972 2°47.137 23.7107 1.131113 7.255442 26.684555
2009-07-24 10:01:59 51°34.136 2°47.139 23.7085 1.7122 11.369101 26.580082
2009-07-24 10:02:59 51°34.3 2°47.147 23.7301 2.027214 13.663776 26.47561
2009-07-24 10:03:59 51°34.464 2°47.14 23.7471 1.703943 11.308695 26.614906
2009-07-24 10:04:59 51°34.626 2°47.132 23.7509 1.144103 7.346612 26.684555
2009-07-24 10:05:59 51°34.789 2°47.134 23.742 1.317344 8.558791 26.64973
2009-07-24 10:06:59 51°34.951 2°47.127 23.7547 1.754934 11.679826 26.614906
2009-07-24 10:07:59 51°35.115 2°47.123 23.7332 1.324151 8.607275 26.684555
2009-07-24 10:08:59 51°35.277 2°47.127 23.7425 1.349317 8.788126 26.789027
2009-07-24 10:09:59 51°35.435 2°47.162 23.7804 2.103339 14.227093 26.719379
2009-07-24 10:10:59 51°35.577 2°47.267 23.7665 2.037749 13.745793 26.858675
2009-07-24 10:11:59 51°35.718 2°47.372 23.7574 1.405946 9.183502 26.823851
2009-07-24 10:12:59 51°35.861 2°47.477 23.8049 1.587324 10.476485 26.963147
2009-07-24 10:13:59 51°36.003 2°47.592 23.8067 1.194626 7.703953 27.137267
2009-07-24 10:14:59 51°36.147 2°47.695 23.8253 1.796329 11.985944 27.102443
2009-07-24 10:15:59 51°36.288 2°47.804 23.8032 0.230554 1.332561 27.276563
2009-07-24 10:16:59 51°36.43 2°47.905 23.8195 1.078122 6.897641 27.137267
2009-07-24 10:17:59 51°36.571 2°48.012 23.8216 2.264924 15.440988 25.221944
2009-07-24 10:19:00 51°36.716 2°48.113 23.8087 2.269884 15.476815 25.221944
2009-07-24 10:19:59 51°36.853 2°48.224 23.8096 2.267611 15.461298 25.396065
2009-07-24 10:20:59 51°36.988 2°48.351 23.7775 2.270194 15.481413 24.664759
2009-07-24 10:21:59 51°37.124 2°48.471 23.8524 2.268231 15.467348 25.430889
2009-07-24 10:22:59 51°37.258 2°48.599 23.828 2.267611 15.463869 25.18712
2009-07-24 10:23:59 51°37.394 2°48.729 23.8207 2.266371 15.455482 25.605009
2009-07-24 10:24:59 51°37.531 2°48.847 23.9095 2.259241 15.402338 25.326416
2009-07-24 10:25:59 51°37.668 2°48.97 23.8868 2.268644 15.475576 25.953249
2009-07-24 10:26:59 51°37.805 2°49.082 23.8507 2.265647 15.4421 25.883601
2009-07-24 10:27:59 51°37.944 2°49.199 23.8695 2.259758 15.405619 26.057722
2009-07-24 10:28:59 51°38.083 2°49.318 23.8799 2.126582 14.417127 26.162194
2009-07-24 10:30:00 51°38.222 2°49.44 23.8809 2.253144 15.358899 26.057722
2009-07-24 10:31:00 51°38.36 2°49.554 23.9016 1.845161 12.347734 26.231842
2009-07-24 10:31:59 51°38.497 2°49.666 23.92 2.044463 13.810986 26.197018
2009-07-24 10:32:59 51°38.639 2°49.779 23.9495 2.097141 14.201517 26.162194
2009-07-24 10:33:59 51°38.781 2°49.892 23.8864 1.296305 8.42143 26.30149
2009-07-24 10:35:00 51°38.925 2°50.011 23.9128 1.792406 11.968287 26.405962
2009-07-24 10:35:59 51°39.065 2°50.112 23.9127 1.18679 7.652493 26.336314
2009-07-24 10:36:59 51°39.203 2°50.238 23.9257 1.594857 10.539971 26.336314
2009-07-24 10:37:59 51°39.339 2°50.375 23.9364 1.994062 13.439898 26.30149
2009-07-24 10:38:59 51°39.476 2°50.513 23.9606 1.841858 12.327768 26.266666
2009-07-24 10:39:59 51°39.613 2°50.644 23.951 2.151995 14.60479 26.231842
2009-07-24 10:41:00 51°39.755 2°50.766 23.9329 1.994165 13.439167 26.405962
2009-07-24 10:41:59 51°39.894 2°50.874 23.9598 2.209128 15.029919 26.30149
2009-07-24 10:42:59 51°39.929 2°51.117 23.9784 1.616012 10.693 26.405962
2009-07-24 10:43:59 51°39.806 2°51.334 23.9331 1.847639 12.36875 26.266666
2009-07-24 10:44:59 51°39.664 2°51.544 23.9567 1.993649 13.43984 26.197018
2009-07-24 10:45:59 51°39.522 2°51.754 23.9689 1.686087 11.197309 26.266666
2009-07-24 10:46:59 51°39.381 2°51.963 23.9905 1.829881 12.24214 26.30149
2009-07-24 10:47:59 51°39.241 2°52.17 23.9697 1.808821 12.085783 26.197018
2009-07-24 10:48:59 51°39.098 2°52.38 23.9641 1.973098 13.291844 26.162194
2009-07-24 10:49:59 51°38.956 2°52.587 23.9489 2.262238 15.431515 26.162194
2009-07-24 10:50:59 51°38.817 2°52.793 24.0172 2.268644 15.480727 26.231842
2009-07-24 10:51:59 51°38.675 2°53.002 23.9955 2.269161 15.485727 26.162194
2009-07-24 10:52:59 51°38.535 2°53.211 23.9796 2.267921 15.474473 26.162194
2009-07-24 10:53:59 51°38.397 2°53.423 24.0082 2.268851 15.482269 26.197018
2009-07-24 10:55:00 51°38.257 2°53.637 23.9886 2.273914 15.52263 26.022897
2009-07-24 10:55:59 51°38.117 2°53.838 24.0272 2.269264 15.487643 26.092546
2009-07-24 10:56:59 51°37.98 2°54.047 24.0206 2.275051 15.53255 26.30149
2009-07-24 10:57:59 51°37.836 2°54.25 24.0182 2.269264 15.487357 26.162194
2009-07-24 10:58:59 51°37.702 2°54.47 24.0248 2.270194 15.494583 26.197018
2009-07-24 10:59:59 51°37.573 2°54.693 24.0358 2.268024 15.477819 26.197018
2009-07-24 11:00:59 51°37.443 2°54.915 24.0347 2.268954 15.485617 26.162194
2009-07-24 11:02:01 51°37.253 2°54.94 24.0473 2.273604 15.519455 26.266666
2009-07-24 11:03:01 51°37.137 2°54.738 24.0641 2.267714 15.474362 26.197018
2009-07-24 11:03:59 51°37.038 2°54.481 24.0624 2.266991 15.469824 26.231842
2009-07-24 11:04:59 51°36.933 2°54.225 24.0645 2.266888 15.469912 26.231842
2009-07-24 11:06:00 51°36.825 2°53.972 24.0703 2.266888 15.468481 26.12737
2009-07-24 11:06:59 51°36.719 2°53.721 24.0714 2.266371 15.462054 25.883601
2009-07-24 11:07:59 51°36.611 2°53.465 24.0809 2.267094 15.469165 26.092546
2009-07-24 11:08:59 51°36.503 2°53.21 24.092 2.267094 15.470881 26.162194
2009-07-24 11:09:59 51°36.396 2°52.953 24.104 2.266681 15.464938 25.570185
2009-07-24 11:10:59 51°36.29 2°52.694 24.1036 2.265854 15.459915 25.709481
2009-07-24 11:11:59 51°36.178 2°52.443 24.1002 2.267404 15.471763 25.813953
2009-07-24 11:12:59 51°36.065 2°52.192 24.1196 2.266371 15.463769 25.744305
2009-07-24 11:13:59 51°35.954 2°51.943 24.1253 2.266578 15.465597 25.744305
2009-07-24 11:14:59 51°35.842 2°51.693 24.1199 2.266991 15.46868 25.779129
2009-07-24 11:16:00 51°35.732 2°51.441 24.1432 2.265441 15.45769 25.813953
2009-07-24 11:16:59 51°35.629 2°51.203 24.1469 2.266061 15.456884 25.813953
2009-07-24 11:17:59 51°35.52 2°50.948 24.1436 2.266681 15.465224 25.813953
2009-07-24 11:18:59 51°35.403 2°50.704 24.1592 2.266061 15.45917 25.848777
2009-07-24 11:19:59 51°35.241 2°50.703 24.1449 2.266371 15.462626 25.779129
2009-07-24 11:20:59 51°35.116 2°50.919 24.1693 2.269781 15.488634 25.813953
2009-07-24 11:21:59 51°34.984 2°51.136 24.1736 2.270091 15.488942 25.813953
2009-07-24 11:22:59 51°34.848 2°51.348 24.1841 2.267198 15.466218 25.848777
2009-07-24 11:23:59 51°34.71 2°51.553 24.1729 2.273501 15.514667 26.614906
2009-07-24 11:25:00 51°34.573 2°51.76 24.202 2.274638 15.520852 26.545258
2009-07-24 11:25:59 51°34.438 2°51.956 24.2029 2.279701 15.55748 26.545258
2009-07-24 11:26:59 51°34.303 2°52.157 24.2307 2.274328 15.519687 26.545258
2009-07-24 11:27:59 51°34.169 2°52.358 24.2284 2.270194 15.487708 26.405962
2009-07-24 11:28:59 51°34.03 2°52.557 24.2154 2.272571 15.503716 26.197018
2009-07-24 11:29:59 51°33.891 2°52.756 24.2057 2.269678 15.48128 26.231842
2009-07-24 11:30:59 51°33.798 2°52.986 24.2636 2.268748 15.473773 26.162194
2009-07-24 11:31:59 51°33.878 2°53.203 24.2476 2.269471 15.480311 26.197018
2009-07-24 11:32:59 51°33.973 2°53.419 24.2541 2.267508 15.465385 26.30149
2009-07-24 11:33:59 51°34.07 2°53.637 24.2426 2.269884 15.482248 26.30149
2009-07-24 11:34:59 51°34.165 2°53.859 24.2615 2.269367 15.477252 25.709481
2009-07-24 11:35:59 51°34.258 2°54.082 24.2644 2.264718 15.443157 25.674657
2009-07-24 11:36:59 51°34.353 2°54.302 24.2553 2.268231 15.467634 25.535361
2009-07-24 11:37:59 51°34.448 2°54.53 24.2721 2.266061 15.4526 26.580082
2009-07-24 11:38:59 51°34.541 2°54.759 24.2734 2.266887 15.459048 26.510434
2009-07-24 11:39:59 51°34.638 2°54.982 24.2635 2.268437 15.468603 26.092546
2009-07-24 11:40:59 51°34.742 2°55.196 24.274 2.272777 15.501533 26.162194
2009-07-24 11:42:00 51°34.843 2°55.413 24.2588 2.271641 15.489623 24.525463
2009-07-24 11:42:59 51°34.944 2°55.623 24.2876 2.268334 15.464404 24.943352
2009-07-24 11:43:59 51°35.042 2°55.848 24.2885 2.269161 15.471137 25.535361
2009-07-24 11:44:59 51°35.142 2°56.068 24.2781 0.057644 0.313989 24.978176
2009-07-24 11:45:59 51°35.24 2°56.289 24.2856 0.090473 0.500544 25.047824
2009-07-24 11:46:59 51°35.34 2°56.509 24.3038 0.069273 0.379605 25.152296
2009-07-24 11:47:59 51°35.442 2°56.729 24.3274 2.265751 15.444867 25.117472
2009-07-24 11:48:59 51°35.54 2°56.952 24.3172 1.585363 10.46707 25.117472
2009-07-24 11:49:59 51°35.641 2°57.179 24.3088 0.613905 3.768501 25.082648
2009-07-24 11:50:59 51°35.743 2°57.401 24.3209 1.682165 11.164482 25.047824
2009-07-24 11:51:59 51°35.847 2°57.624 24.3117 1.295892 8.413881 25.013
2009-07-24 11:52:59 51°35.924 2°57.866 24.3218 1.822345 12.178291 24.943352
2009-07-24 11:53:59 51°35.835 2°58.101 24.3289 0.854465 5.370032 24.943352
2009-07-24 11:54:59 51°35.663 2°58.228 24.3238 1.31951 8.573225 24.908528
2009-07-24 11:55:59 51°35.482 2°58.327 24.3262 0.8421 5.285542 24.908528
2009-07-24 11:56:59 51°35.3 2°58.426 24.3275 1.391298 9.081952 24.908528
2009-07-24 11:57:59 51°35.116 2°58.514 24.3251 1.216899 7.85877 24.873704
2009-07-24 11:58:59 51°34.933 2°58.597 24.3222 1.273203 8.252287 24.804056
2009-07-24 11:59:59 51°34.749 2°58.678 24.3226 1.433386 9.381239 24.769232
2009-07-24 12:00:59 51°34.565 2°58.761 24.3227 1.163487 7.486542 24.804056
2009-07-24 12:01:59 51°34.377 2°58.846 24.3221 1.655228 10.965357 24.734408
2009-07-24 12:02:59 51°34.192 2°58.93 24.3247 1.289085 8.362715 24.734408
2009-07-24 12:03:59 51°34.005 2°59.021 24.3244 0.788623 4.92584 24.769232
2009-07-24 12:05:00 51°33.814 2°59.118 24.3271 1.006171 6.40023 24.769232
2009-07-24 12:05:59 51°33.626 2°59.211 24.3291 1.502611 9.871398 24.734408
2009-07-24 12:06:59 51°33.434 2°59.309 24.3286 1.388513 9.061603 24.699583
2009-07-24 12:07:59 51°33.24 2°59.412 24.3298 1.705801 11.328145 24.734408
2009-07-24 12:09:01 51°33.051 2°59.53 24.3339 1.006377 6.400819 24.769232
2009-07-24 12:09:59 51°32.871 2°59.626 24.3336 1.038022 6.617764 24.734408
2009-07-24 12:10:59 51°32.684 2°59.727 24.3379 0.889193 5.602321 24.699583
2009-07-24 12:11:59 51°32.495 2°59.805 24.3423 1.349111 8.782306 24.664759
2009-07-24 12:12:59 51°32.309 2°59.823 24.3433 1.713336 11.380438 24.664759
2009-07-24 12:13:59 51°32.13 2°59.747 24.3467 1.320438 8.580064 24.699583
2009-07-24 12:15:00 51°31.953 2°59.651 24.3503 0.878579 5.529871 24.804056
2009-07-24 12:15:59 51°31.776 2°59.574 24.3549 1.455359 9.532408 24.664759
2009-07-24 12:16:59 51°31.59 2°59.5 24.3597 1.221539 7.886794 24.699583
2009-07-24 12:17:59 51°31.407 2°59.423 24.3632 1.046784 6.676012 24.699583
2009-07-24 12:18:59 51°31.224 2°59.345 24.3659 1.242266 8.03104 24.664759
2009-07-24 12:19:59 51°31.045 2°59.273 24.372 1.352412 8.803292 24.664759
2009-07-24 12:20:59 51°30.866 2°59.199 24.3722 1.051423 6.707898 24.699583
2009-07-24 12:22:01 51°30.681 2°59.127 24.3788 1.101524 7.052604 24.525463
2009-07-24 12:22:59 51°30.513 2°59.062 24.3825 1.544398 10.164394 24.420991
2009-07-24 12:23:59 51°30.34 2°58.981 24.3872 1.157404 7.439101 24.420991
2009-07-24 12:24:59 51°30.169 2°58.897 24.3909 1.003903 6.381063 24.420991
2009-07-24 12:25:59 51°30.002 2°58.819 24.3947 1.462684 9.581937 24.351343
2009-07-24 12:27:00 51°29.831 2°58.735 24.4022 0.973497 6.17289 24.386167
2009-07-24 12:27:59 51°29.665 2°58.655 24.4058 1.095854 7.012559 24.351343
2009-07-24 12:28:59 51°29.502 2°58.57 24.4093 1.675663 11.104299 24.316519
2009-07-24 12:30:00 51°29.337 2°58.491 24.4118 1.641089 10.854871 24.281695
2009-07-24 12:31:00 51°29.177 2°58.418 24.4199 0.655004 4.034309 24.420991
2009-07-24 12:31:59 51°29.021 2°58.347 24.4243 1.179778 7.592928 24.351343
2009-07-24 12:33:00 51°28.857 2°58.265 24.4259 1.365923 8.895739 24.386167
2009-07-24 12:33:59 51°28.701 2°58.19 24.4323 1.285888 8.332932 24.386167
2009-07-24 12:34:59 51°28.543 2°58.112 24.4388 1.071731 6.844882 24.420991
2009-07-24 12:36:00 51°28.381 2°58.026 24.4421 0.816752 5.110128 24.490639
2009-07-24 12:36:59 51°28.22 2°57.941 24.4459 1.281763 8.303727 24.386167
2009-07-24 12:37:59 51°28.058 2°57.853 24.4526 1.015344 6.457166 24.386167
2009-07-24 12:38:59 51°27.894 2°57.771 24.4608 0.885689 5.574402 24.525463
2009-07-24 12:39:59 51°27.733 2°57.687 24.4627 1.196482 7.707521 24.490639
2009-07-24 12:40:59 51°27.567 2°57.605 24.4675 0.748544 4.653182 24.455815
2009-07-24 12:42:00 51°27.401 2°57.528 24.4745 0.907537 5.721615 24.490639
2009-07-24 12:42:59 51°27.241 2°57.453 24.4749 1.121009 7.183434 24.455815
2009-07-24 12:44:01 51°27.073 2°57.38 24.4862 0.981124 6.221995 24.490639
2009-07-24 12:44:59 51°26.919 2°57.314 24.4891 0.942474 5.958735 24.525463
2009-07-24 12:45:59 51°26.756 2°57.244 24.4902 1.34942 8.776089 24.490639
2009-07-24 12:47:01 51°26.592 2°57.181 24.4957 0.981227 6.222127 24.490639
2009-07-24 12:48:00 51°26.438 2°57.12 24.4993 0.96051 6.08085 24.525463
2009-07-24 12:49:02 51°26.274 2°57.057 24.5045 1.05235 6.708854 24.490639
2009-07-24 12:49:59 51°26.122 2°56.998 24.5127 0.826231 5.171645 24.490639
2009-07-24 12:51:00 51°25.955 2°56.933 24.5145 1.296201 8.401206 24.351343
2009-07-24 12:52:02 51°25.799 2°56.88 24.5216 0.780071 4.86196 24.525463
2009-07-24 12:53:02 51°25.646 2°56.812 24.5235 1.025961 6.527049 24.490639
2009-07-24 12:54:03 51°25.491 2°56.739 24.5301 1.452574 9.502673 24.490639
2009-07-24 12:55:02 51°25.34 2°56.668 24.5333 0.844779 5.295827 24.595111
2009-07-24 12:56:02 51°25.19 2°56.608 24.5414 0.778834 4.853339 24.595111
2009-07-24 12:57:02 51°25.04 2°56.542 24.5489 1.028538 6.543872 24.560287
2009-07-24 12:57:59 51°24.895 2°56.474 24.5573 0.826025 5.169028 24.595111
2009-07-24 12:58:59 51°24.741 2°56.403 24.5589 1.075957 6.86932 24.595111
2009-07-24 12:59:59 51°24.592 2°56.338 24.5684 1.035136 6.588498 24.560287
2009-07-24 13:01:00 51°24.444 2°56.274 24.5719 1.150908 7.386585 24.629935
2009-07-24 13:01:59 51°24.307 2°56.219 24.5737 1.268975 8.207864 24.699583
2009-07-24 13:03:01 51°24.157 2°56.152 24.583 1.384077 9.015999 24.664759
2009-07-24 13:03:59 51°24.02 2°56.084 24.5907 1.017509 6.467483 24.699583
2009-07-24 13:04:59 51°23.878 2°56 24.5913 0.926602 5.847327 24.734408
2009-07-24 13:05:59 51°23.737 2°55.915 24.5987 1.072555 6.844527 24.664759
2009-07-24 13:06:59 51°23.597 2°55.831 24.6022 1.154929 7.413218 24.629935
2009-07-24 13:07:59 51°23.456 2°55.747 24.6093 1.411516 9.208338 24.595111
2009-07-24 13:08:59 51°23.315 2°55.661 24.6128 1.292592 8.371758 24.664759
2009-07-24 13:10:00 51°23.171 2°55.583 24.6205 0.767501 4.775972 24.699583
2009-07-24 13:11:00 51°23.033 2°55.51 24.6226 0.764204 4.75354 24.699583
2009-07-24 13:11:59 51°22.895 2°55.43 24.6326 0.871365 5.472462 24.734408
2009-07-24 13:12:59 51°22.751 2°55.348 24.6323 0.753798 4.683916 24.83888
2009-07-24 13:13:59 51°22.606 2°55.265 24.6398 0.745762 4.630237 24.83888
2009-07-24 13:14:59 51°22.461 2°55.182 24.644 0.832311 5.20898 24.804056
2009-07-24 13:15:58 51°22.322 2°55.103 24.6545 0.78615 4.899564 24.83888
2009-07-24 13:16:59 51°22.179 2°55.021 24.6483 1.225973 7.904793 24.734408
2009-07-24 13:18:00 51°22.037 2°54.945 24.6497 0.924335 5.830124 24.804056
2009-07-24 13:18:59 51°21.901 2°54.868 24.6658 0.977104 6.188654 24.734408
2009-07-24 13:20:01 51°21.757 2°54.788 24.6596 1.072968 6.844978 24.734408
2009-07-24 13:21:01 51°21.624 2°54.708 24.6764 1.009675 6.410813 24.769232
2009-07-24 13:21:59 51°21.496 2°54.627 24.6803 0.922995 5.820183 24.734408
2009-07-24 13:23:00 51°21.36 2°54.54 24.6882 1.334258 8.660691 24.769232
2009-07-24 13:23:59 51°21.232 2°54.454 24.6955 1.210815 7.797548 24.734408
2009-07-24 13:24:59 51°21.104 2°54.369 24.6941 1.00617 6.386034 24.83888
2009-07-24 13:25:59 51°20.969 2°54.28 24.6984 0.867552 5.444643 24.943352
2009-07-24 13:26:59 51°20.837 2°54.193 24.6985 1.39759 9.105318 24.769232
2009-07-24 13:28:00 51°20.706 2°54.115 24.7068 1.646042 10.872848 24.83888
2009-07-24 13:28:58 51°20.577 2°54.031 24.7223 1.505912 9.871834 24.83888
2009-07-24 13:29:59 51°20.438 2°53.941 24.7147 1.23845 7.988821 24.873704
2009-07-24 13:30:59 51°20.302 2°53.854 24.7248 1.314971 8.523152 24.908528
2009-07-24 13:32:00 51°20.17 2°53.77 24.7329 0.910422 5.733292 24.908528
2009-07-24 13:32:59 51°20.039 2°53.684 24.7413 0.78244 4.872183 24.908528
2009-07-24 13:33:59 51°19.901 2°53.59 24.7404 0.949482 5.997729 24.943352
2009-07-24 13:35:00 51°19.768 2°53.508 24.7428 0.696621 4.301468 25.013
2009-07-24 13:36:01 51°19.637 2°53.421 24.7579 0.984731 6.2377 24.908528
2009-07-24 13:37:00 51°19.509 2°53.334 24.7585 1.042248 6.63072 24.943352
2009-07-24 13:37:59 51°19.375 2°53.242 24.7661 1.406049 9.162147 24.873704
2009-07-24 13:39:00 51°19.235 2°53.145 24.7668 0.960098 6.069136 24.908528
2009-07-24 13:39:59 51°19.102 2°53.051 24.7759 1.244019 8.024847 24.83888
2009-07-24 13:41:00 51°18.963 2°52.955 24.7824 0.681993 4.20422 24.908528
2009-07-24 13:42:01 51°18.827 2°52.869 24.7815 1.025343 6.513968 24.943352
2009-07-24 13:43:00 51°18.692 2°52.793 24.7998 0.649132 3.987605 24.978176
2009-07-24 13:44:00 51°18.556 2°52.715 24.7952 1.136474 7.277582 24.873704
2009-07-24 13:44:59 51°18.415 2°52.629 24.8055 1.03998 6.613359 24.908528
2009-07-24 13:46:00 51°18.274 2°52.554 24.811 0.957212 6.048179 24.908528
2009-07-24 13:46:59 51°18.128 2°52.485 24.8145 0.547884 3.326381 25.013
2009-07-24 13:47:59 51°17.976 2°52.439 24.8307 0.775846 4.825947 24.978176
2009-07-24 13:48:58 51°17.823 2°52.409 24.816 0.687761 4.24114 25.013
2009-07-24 13:49:59 51°17.672 2°52.389 24.826 1.037094 6.592378 24.908528
2009-07-24 13:50:59 51°17.52 2°52.364 24.8392 1.250928 8.070212 24.83888
2009-07-24 13:51:59 51°17.364 2°52.356 24.8417 0.607209 3.711742 25.047824
2009-07-24 13:52:59 51°17.204 2°52.362 24.8422 1.091317 6.963997 24.908528
2009-07-24 13:53:59 51°17.043 2°52.445 24.8478 0.904754 5.690652 24.908528
2009-07-24 13:54:59 51°16.885 2°52.571 24.8568 0.677975 4.175807 25.117472
2009-07-24 13:55:59 51°16.728 2°52.694 24.8578 0.5105 3.083878 25.047824
2009-07-24 13:56:59 51°16.568 2°52.822 24.8698 0.989163 6.262653 25.013
2009-07-24 13:58:00 51°16.405 2°52.95 24.8684 0.656034 4.030767 25.047824
2009-07-24 13:58:59 51°16.247 2°53.072 24.8636 1.294035 8.368965 24.908528
2009-07-24 13:59:59 51°16.085 2°53.196 24.8755 0.76544 4.754565 25.047824
2009-07-24 14:00:59 51°15.922 2°53.316 24.8704 1.238553 7.980757 24.943352
2009-07-24 14:01:59 51°15.76 2°53.436 24.8938 0.539233 3.26811 25.082648
2009-07-24 14:02:59 51°15.597 2°53.553 24.8838 0.527904 3.195397 25.047824
2009-07-24 14:03:59 51°15.433 2°53.666 24.8945 1.06204 6.759705 25.013
2009-07-24 14:05:00 51°15.275 2°53.824 24.9073 0.665923 4.094317 25.082648
2009-07-24 14:05:59 51°15.128 2°53.998 24.8915 1.111627 7.099707 24.943352
2009-07-24 14:07:00 51°14.976 2°54.174 24.909 0.803768 5.008129 25.047824
2009-07-24 14:07:59 51°14.83 2°54.356 24.9207 1.113276 7.110551 25.117472
2009-07-24 14:08:59 51°14.688 2°54.562 24.9094 1.839791 12.253273 24.978176
2009-07-24 14:09:59 51°14.545 2°54.767 24.9043 0.962159 6.075373 25.047824
2009-07-24 14:10:59 51°14.414 2°54.999 24.9135 0.352957 2.081849 25.117472
2009-07-24 14:11:59 51°14.284 2°55.215 24.9329 0.506999 3.059109 25.152296
2009-07-24 14:13:00 51°14.162 2°55.385 24.9261 0.256288 1.48366 25.152296
2009-07-24 14:14:00 51°14.045 2°55.474 24.9435 0.568585 3.45697 25.117472
2009-07-24 14:14:59 51°13.929 2°55.558 24.9489 0.455818 2.731207 25.152296
2009-07-24 14:16:00 51°13.806 2°55.648 24.9564 0.578988 3.524348 25.152296
2009-07-24 14:16:59 51°13.729 2°55.758 24.9564 0.545 3.303788 25.18712
2009-07-24 14:17:59 51°13.686 2°55.857 24.9629 0.67406 4.14607 25.18712
2009-07-24 14:18:59 51°13.665 2°55.938 24.9587 0.667777 4.104496 25.18712
2009-07-24 14:19:59 51°13.663 2°55.955 24.9895 1.036475 6.58007 25.221944
2009-07-24 14:20:59 51°13.662 2°55.96 24.966 0.583623 3.553578 25.256768